STARLINK-5189 (54052 NORAD) Tracking and Keplerian Element Data

This shows tracking and keplerian element data for the satellite.

Feedback or suggestion? Click here.




ElementValue
Catalog54052
NameSTARLINK-5189
Epoch Orbit130
Epoch Day324.91667824
Epoch Year2022
RAAN352.5479
Inclination53.2156
Eccentricity0.0003114
Argument of Perigee13.7204
Mean Anonmoly328.5995
Mean Motion15.73145105
Decay Rate0.00079573
L11 54052U 22136B 22324.91667824 .00079573 00000+0 56726-3 0 9995
L22 54052 53.2156 352.5479 0003114 13.7204 328.5995 15.73145105 1308



Live tracking and technical data element details for STARLINK-5189 (NORAD 54052). STARLINK-5189 can be tracked NOW for your location showing map with azimuth and elevation plus other details from your city location.







IsCatalogInMostPopularTable: catalog: 54052, numindb: 1
Update: records affected: 1



GetName: 54052 STARLINK-5189

Hit Count: updated at: Mon, 28 Nov 2022 21:47:37 GMT